Back to Previous

Regional Weather Roundup

635 
ASUS44 KLZK 252305
RWRLZK

WEATHER ROUNDUP FOR ARKANSAS
NATIONAL WEATHER SERVICE LITTLE ROCK AR
600 PM CDT SAT OCT 25 2014

NOTE: "FAIR" INDICATES FEW OR NO CLOUDS BELOW 12,000 FEET WITH NO
SIGNIFICANT WEATHER AND/OR OBSTRUCTIONS TO VISIBILITY.

ARZ001-003-010-029-260000-
NORTHWEST ARKANSAS
  
CITY           SKY/WX    TMP DP  RH WIND       PRES   REMARKS
FAYETTEVILLE   CLEAR     78  64  61 SW5       30.05S                  
FORT SMITH     CLEAR     84  62  47 SW3       30.02S HX  85           
HARRISON       CLEAR     80  62  54 CALM      30.05S                  
BENTONVILLE    CLEAR     79  61  53 SW5       30.06F                  
ROGERS         CLEAR     78  62  57 SW6       30.06S                  
SILOAM SPGS    CLEAR     79  63  57 SW6       30.06S                  
HIGHFILL       CLEAR     79  62  56 SW3       30.05S                  
SPRINGDALE     CLEAR     81  63  54 W6        30.07S                  
$$

ARZ004-005-016-260000-
NORTH CENTRAL ARKANSAS
  
CITY           SKY/WX    TMP DP  RH WIND       PRES   REMARKS
BATESVILLE     CLEAR     81  64  57 SW3       30.00S                  
FLIPPIN        CLEAR     81  63  54 CALM      30.03R                  
MTN HOME       CLEAR     77  63  61 CALM      30.02R                  
$$

ARZ040-041-260000-
WEST CENTRAL ARKANSAS
  
CITY           SKY/WX    TMP DP  RH WIND       PRES   REMARKS
MENA           CLEAR     81  64  57 CALM      30.07R                  
MOUNT IDA      CLEAR     78  66  66 CALM      30.03S                  
$$

ARZ009-017-025-026-028-260000-
NORTHEAST ARKANSAS
  
CITY           SKY/WX    TMP DP  RH WIND       PRES   REMARKS
CORNING        LGT RAIN  77  66  69 S6        30.00S                  
JONESBORO      CLEAR     79  64  60 S3        30.00S                  
NEWPORT        CLEAR     80  65  60 SE7       30.01S                  
WALNUT RIDGE   CLEAR     81  63  54 CALM      29.99S                  
BLYTHEVILLE    CLEAR     80  64  58 SW3       30.00S                  
$$

ARZ022-023-033-042-044-260000-
CENTRAL ARKANSAS
  
CITY           SKY/WX    TMP DP  RH WIND       PRES   REMARKS
LITTLE ROCK    CLEAR     82  63  52 SW6       30.02S                  
N LITTLE ROCK  CLEAR     80  68  67 W3        30.02S                  
JACKSONVILLE   CLEAR     81  66  61 W1        30.02S                  
SEARCY         CLEAR     79  66  64 SW3       30.02S                  
HOT SPRINGS    CLEAR     79  65  62 SW7       30.05S                  
RUSSELLVILLE   CLEAR     78  66  66 CALM      30.02S                  
$$

ARZ036-260000-
EAST ARKANSAS
  
CITY           SKY/WX    TMP DP  RH WIND       PRES   REMARKS
WEST MEMPHIS   CLEAR     79  64  60 SW3       30.00S                  
$$

ARZ050-053-066-070-073-260000-
SOUTHWEST ARKANSAS
  
CITY           SKY/WX    TMP DP  RH WIND       PRES   REMARKS
ARKADELPHIA    FAIR      79  67  66 SW3       30.05S                  
CAMDEN         CLEAR     82  64  54 CALM      30.05S                  
TEXARKANA      CLEAR     81  64  56 SW6       30.05F                  
EL DORADO      CLEAR     78  65  63 SW3       30.06F                  
DE QUEEN       CLEAR     81  66  60 CALM      30.02F                  
$$

ARZ056-057-069-260000-
SOUTHEAST ARKANSAS
  
CITY           SKY/WX    TMP DP  RH WIND       PRES   REMARKS
PINE BLUFF     CLEAR     78  65  63 SW6       30.04S                  
STUTTGART      CLEAR     81  64  57 SW8       30.03S                  
MONTICELLO     CLEAR     78  65  63 W3        30.05S                  

$$




USA.gov is the U.S. government's official web portal to all federal, state and local government web resources and services.